Wind_Speed
95 93 90 87 84 81 80 79 78 78 78 78 79 79 79 78 77 75 74 73 73 75 78 83 86 86 84 85 87 89 91 92 94 94 95 95 94 94 94 94 94 94 93 91 89 88 87 87 88 87 86 84 83 81 79 78 76 75 74 73 72 70 68 67 66 65 64 63 63 64 66 68 69 70 69 69 68 68 69 70 72 73 72 70 70 69
98 95 92 88 85 83 81 80 79 78 78 79 79 80 80 79 78 76 75 74 73 75 80 86 88 86 83 84 86 89 91 92 92 92 93 93 93 93 93 94 94 94 94 93 91 89 89 88 88 88 87 86 84 83 81 79 78 77 76 74 73 71 69 68 67 67 66 65 65 67 68 69 70 70 71 71 70 69 69 70 71 71 70 69 69 68
100 97 94 91 88 85 83 81 79 79 79 79 80 80 80 80 79 77 76 74 74 76 81 87 89 87 83 82 84 88 90 92 92 91 91 91 92 92 92 93 93 94 94 94 93 91 90 90 89 89 88 88 86 84 82 81 79 78 77 76 74 72 70 69 69 68 68 67 67 68 68 69 70 71 71 71 70 69 69 70 70 70 69 68 68 68
101 98 96 93 90 87 84 82 80 79 79 80 80 80 80 80 80 79 77 76 76 77 82 87 90 89 84 82 82 85 89 91 92 91 90 91 91 91 91 91 92 93 93 94 94 93 92 92 91 90 89 89 87 85 83 82 80 79 78 77 75 73 72 71 70 70 70 69 69 68 68 68 69 70 70 70 68 68 68 69 70 70 69 69 68 68
103 101 98 95 91 88 86 84 81 80 80 80 80 80 80 81 80 80 79 78 78 79 83 87 91 91 87 83 81 83 87 91 93 93 92 91 91 91 90 89 90 91 92 93 94 94 94 93 92 90 89 89 88 86 84 82 81 80 79 77 76 74 73 72 72 72 72 71 70 68 67 67 68 69 69 68 67 66 67 69 70 71 70 69 69 68
105 102 100 96 93 90 88 85 82 80 80 80 80 81 81 81 81 81 81 81 80 81 83 87 91 93 91 86 82 82 85 90 94 95 93 92 91 90 88 87 88 90 91 92 93 94 95 95 93 91 89 89 89 88 85 83 82 81 79 78 77 75 74 73 73 74 74 73 71 69 68 67 68 68 67 67 66 66 67 69 71 71 71 70 68 67
106 103 101 98 95 92 89 86 83 81 80 81 81 82 82 82 82 82 82 82 82 82 83 86 91 95 95 92 87 84 84 88 92 95 94 92 91 89 87 86 87 89 90 92 93 94 95 96 94 92 90 89 89 88 86 84 83 81 80 79 78 76 74 73 74 75 75 74 72 70 68 68 68 68 67 66 66 67 69 71 72 71 70 68 67 65
105 103 100 98 96 93 90 87 84 82 81 81 82 82 83 83 83 83 83 84 84 83 83 85 89 93 96 97 93 88 85 86 88 91 92 92 90 89 88 87 86 87 89 92 93 94 95 96 95 93 91 90 90 89 88 85 84 82 81 80 78 76 74 74 75 77 77 75 73 71 69 68 68 68 67 67 67 69 70 71 71 69 67 65 64 63
103 102 100 98 96 93 90 88 85 83 82 82 82 83 83 84 84 84 84 84 84 84 84 85 87 90 93 96 94 90 86 84 84 87 90 91 92 92 91 88 85 85 88 91 93 94 94 95 95 94 92 91 91 90 89 86 84 83 82 81 79 77 75 75 77 78 78 77 74 72 70 69 69 69 68 68 69 70 71 70 69 66 64 61 60 60
100 100 99 97 95 93 90 88 86 84 83 82 83 83 84 84 85 85 84 84 84 84 85 85 86 87 88 90 91 89 85 82 82 85 89 92 94 94 93 88 85 85 88 90 92 93 93 94 94 94 93 92 92 91 89 87 85 83 82 82 80 77 75 76 77 79 79 78 75 73 71 70 70 70 69 69 69 70 69 68 65 63 60 59 58 58
96 97 96 95 93 92 90 88 86 84 83 83 83 83 83 84 85 85 85 85 84 85 85 86 86 85 85 86 87 87 85 82 81 82 85 89 93 94 94 90 87 86 88 89 91 91 92 92 92 93 93 92 92 91 89 87 85 84 83 82 80 78 76 77 78 79 79 78 76 74 72 71 71 71 70 70 69 68 67 65 63 61 59 59 59 59
92 92 92 92 91 89 88 87 85 84 82 82 82 83 83 84 85 86 85 85 85 85 85 86 86 85 84 84 85 86 86 84 83 82 82 83 86 90 92 91 89 87 87 87 88 90 90 90 90 90 91 91 90 89 88 87 85 85 84 82 80 78 78 79 80 80 80 79 78 76 74 73 72 72 71 70 69 68 66 64 62 61 61 61 61 62
87 88 88 88 88 87 86 85 83 82 81 81 82 83 84 85 86 86 86 85 84 84 85 85 85 84 83 83 83 84 85 86 86 85 84 83 83 85 87 88 87 85 84 84 85 87 88 88 88 87 88 88 88 88 87 87 86 85 84 82 80 79 80 81 82 82 82 81 79 78 76 74 73 73 72 71 71 69 68 66 65 65 65 65 66 66
83 84 84 84 84 84 83 82 81 80 80 81 82 83 85 85 85 85 85 84 83 83 84 84 85 84 83 83 83 83 84 85 86 87 87 86 85 84 84 85 85 85 83 82 83 85 86 86 85 85 86 86 87 87 87 87 87 86 84 81 80 81 82 83 84 84 84 83 81 79 77 76 74 74 73 73 73 73 72 71 71 70 70 70 69 69
80 80 81 81 81 81 80 80 79 79 80 81 82 83 84 85 84 84 84 83 83 82 83 83 84 84 83 82 82 82 83 84 85 87 88 88 87 85 83 84 85 85 84 83 83 84 85 84 84 84 84 85 85 86 87 87 87 86 84 82 81 82 83 85 86 86 86 85 83 81 79 77 76 76 75 75 76 76 77 77 77 76 75 73 72 70
78 78 78 79 79 78 78 78 78 78 79 81 82 83 84 84 84 84 83 82 82 81 81 82 82 83 82 82 82 81 82 83 84 86 87 88 87 85 83 82 83 85 85 85 85 85 85 84 83 83 83 84 84 85 87 88 88 87 85 82 81 81 83 84 85 86 86 85 83 81 80 79 78 77 77 77 77 77 78 79 79 79 78 75 73 70
75 76 76 77 76 76 76 77 77 78 79 80 81 82 83 84 83 83 81 81 80 80 80 80 81 81 81 81 81 81 81 82 83 85 86 88 87 86 82 81 81 82 84 85 87 88 88 87 85 83 83 83 84 85 87 89 89 88 85 82 80 80 81 82 82 82 82 82 81 81 80 78 77 77 77 77 76 76 77 77 78 78 78 76 73 69
73 74 74 74 74 74 75 75 76 77 78 79 81 82 82 82 81 80 79 78 78 78 79 79 80 80 80 79 80 81 81 82 83 85 86 87 88 87 83 80 78 78 79 81 83 86 90 90 87 84 83 83 84 85 88 89 90 88 85 81 79 79 79 78 77 76 75 76 76 77 77 76 75 75 75 75 75 75 75 76 77 77 77 75 72 68
70 72 72 72 72 72 73 74 75 76 77 78 79 80 80 79 78 77 76 76 76 76 77 78 78 78 78 78 79 80 81 81 83 84 85 87 89 89 86 81 76 73 71 71 72 77 84 88 88 86 84 83 84 86 88 90 90 88 85 81 79 77 76 75 72 70 68 68 69 70 71 71 72 72 73 73 74 74 75 76 77 77 77 74 71 68
67 68 69 69 70 70 71 72 73 74 75 76 77 77 76 76 75 74 73 73 74 74 75 75 76 76 76 76 77 77 78 80 81 83 85 87 90 91 90 84 77 71 66 63 63 67 74 82 87 87 85 85 85 87 89 90 90 88 85 82 80 77 75 72 69 66 64 64 64 65 66 67 68 69 70 71 72 73 74 75 76 77 76 74 71 69
63 64 65 66 66 67 68 69 70 71 72 73 73 73 73 72 71 70 70 70 71 71 72 73 73 73 73 73 73 74 75 77 79 82 85 87 90 92 92 88 82 74 68 62 60 62 68 77 85 88 87 87 87 89 90 91 91 90 88 85 82 80 77 73 70 67 65 64 64 63 64 64 65 66 67 69 70 71 72 74 75 75 74 73 72 70
58 60 61 61 62 64 65 65 66 66 67 68 68 68 69 68 67 67 67 67 68 68 69 70 70 70 69 69 69 70 72 74 77 80 83 84 87 90 92 90 86 80 73 65 58 57 62 73 83 89 90 89 90 91 91 92 92 91 90 88 86 84 82 79 76 73 71 69 67 66 65 64 65 65 66 67 68 69 70 72 72 73 73 72 72 71
54 55 56 57 58 60 61 61 61 62 63 64 64 65 65 64 63 63 64 64 65 66 66 67 67 66 65 64 65 66 68 71 75 78 79 80 84 88 90 89 87 84 77 68 60 55 57 66 78 87 92 92 92 92 92 91 90 90 90 89 88 87 86 86 85 83 80 78 74 71 69 67 66 66 67 67 68 68 69 70 70 70 70 70 71 71
50 50 51 52 54 56 56 56 57 58 59 60 61 61 60 60 60 61 61 62 62 62 62 62 61 61 60 60 60 60 63 68 72 74 75 77 81 84 86 87 86 85 81 73 64 58 56 60 69 79 87 90 91 91 90 88 86 85 85 85 85 85 86 87 88 88 87 84 81 77 73 70 68 67 67 68 68 68 68 68 68 68 67 68 69 71
45 46 47 48 50 51 52 53 54 54 55 56 56 56 56 56 56 57 57 58 58 58 57 57 56 56 57 55 54 55 60 66 70 71 71 73 77 80 82 83 83 83 81 77 70 64 61 61 64 70 77 83 87 88 87 84 81 79 79 78 78 78 79 80 81 81 81 81 80 78 75 73 70 69 68 68 68 68 68 68 67 66 66 67 68 70
41 42 43 45 46 47 48 49 50 51 52 52 52 52 52 52 53 53 53 53 54 53 53 53 53 53 52 49 48 51 57 64 67 68 68 69 71 74 77 78 79 79 78 77 73 69 66 65 65 66 70 76 81 83 83 80 77 75 73 71 71 71 71 70 70 70 71 72 73 74 73 72 71 70 69 69 68 68 69 68 67 66 66 67 68 69
37 39 40 41 42 44 45 46 46 47 48 48 48 49 49 49 49 49 50 50 50 49 49 49 49 47 45 42 44 49 56 61 64 66 66 65 66 69 72 74 74 74 73 73 72 70 68 67 66 67 68 72 76 78 79 77 75 72 69 66 65 64 63 63 63 64 65 67 68 69 70 70 71 70 70 69 69 69 70 69 68 68 67 67 67 68
34 35 37 38 39 40 41 42 43 43 44 44 45 45 45 46 46 46 47 47 46 45 44 44 43 41 39 40 44 49 55 59 62 63 63 61 62 64 68 70 69 69 68 68 67 66 64 64 65 66 67 70 72 74 75 74 72 69 66 63 61 60 59 59 61 62 63 64 65 67 68 69 70 70 70 70 70 71 71 70 70 69 68 68 67 67
31 33 34 36 37 38 38 39 39 40 41 41 41 42 42 43 43 43 44 43 42 41 41 40 39 38 39 41 45 49 53 57 60 61 59 57 58 61 64 65 65 65 64 63 61 60 59 60 62 63 65 67 69 70 71 70 69 66 63 61 59 58 58 58 60 61 62 63 64 66 68 69 70 70 71 71 71 71 71 71 71 70 70 69 68 67
30 31 32 33 34 35 36 36 37 37 38 38 39 39 39 39 40 40 40 39 39 38 38 39 40 41 42 43 45 48 51 54 57 57 56 54 55 58 60 61 62 62 61 58 56 55 56 58 59 61 63 65 66 67 67 67 65 63 61 60 58 58 58 59 60 61 62 63 65 66 68 70 71 71 71 72 72 72 72 71 71 70 70 68 67 67
29 30 31 32 33 33 34 34 35 35 36 36 36 37 37 36 36 37 36 36 37 38 39 41 43 43 44 44 45 47 49 51 53 53 53 52 53 55 56 57 60 61 60 56 54 54 55 55 56 59 61 63 64 65 65 64 62 61 59 59 58 59 59 60 61 62 63 64 66 68 69 70 71 72 73 73 73 72 72 71 70 69 67 66 66 66
29 29 30 31 31 32 33 33 34 34 34 35 35 34 34 34 34 34 35 36 38 40 42 44 44 44 44 44 45 46 47 48 49 50 51 51 52 53 54 56 58 60 59 57 55 54 53 51 53 56 59 62 63 64 63 62 61 60 59 59 60 61 62 62 63 63 64 66 67 69 70 71 73 74 74 74 73 72 70 69 67 66 65 64 64 65
29 29 30 30 31 32 32 33 33 33 33 33 33 33 33 33 33 34 36 38 41 42 43 43 42 42 42 43 45 45 46 46 47 49 50 50 50 51 53 55 58 59 58 57 56 54 51 49 50 53 57 60 61 62 62 62 61 60 60 62 63 65 65 65 65 65 65 67 68 69 71 72 73 73 73 72 71 69 67 65 64 64 63 63 64 65
29 30 30 31 31 32 32 32 33 33 33 33 34 34 34 35 36 37 39 41 42 42 41 40 39 39 40 41 42 43 43 44 46 47 48 48 49 50 52 55 57 58 58 57 55 52 49 48 48 51 54 57 59 61 61 62 62 62 63 65 67 67 67 67 66 66 67 67 68 69 70 70 70 69 68 67 65 64 63 63 63 63 64 64 64 65
30 31 31 32 32 33 33 33 34 35 35 36 36 36 36 37 38 39 40 41 40 39 37 37 36 36 36 36 37 38 39 41 43 44 45 46 48 49 51 54 56 58 58 57 54 50 46 45 46 49 52 55 58 59 61 62 63 63 65 67 68 68 68 67 67 67 67 67 68 68 67 66 66 65 64 63 62 62 63 64 65 66 66 66 66 66
32 32 33 33 34 35 36 37 38 38 38 37 36 35 34 34 35 35 35 35 34 33 33 33 33 32 31 32 32 33 35 36 38 40 42 44 45 47 49 52 55 57 58 58 54 48 43 42 44 47 51 54 56 59 61 63 64 64 65 67 67 67 67 66 66 66 66 66 66 66 65 64 63 63 63 63 63 64 65 66 67 68 69 68 68 67
33 33 34 35 37 38 40 41 41 39 36 33 31 30 29 29 29 29 29 29 29 29 30 30 29 28 27 27 28 29 31 32 34 36 38 40 42 44 47 51 54 56 58 58 54 48 42 40 40 43 47 52 55 58 60 63 64 65 66 66 66 65 65 65 65 65 65 65 65 64 64 63 63 64 64 65 65 66 67 68 69 70 70 69 68 67
34 35 36 37 39 41 42 42 40 35 31 28 26 25 25 25 25 25 26 27 28 29 29 29 28 26 24 23 24 25 26 28 30 32 34 37 39 42 45 48 51 55 58 59 56 50 43 40 38 38 41 47 52 55 58 61 63 65 67 67 65 63 63 63 64 65 65 65 65 65 64 64 64 65 65 66 67 67 68 69 70 69 69 68 66 66
35 35 36 37 39 41 42 40 35 29 26 24 23 23 24 24 24 25 26 27 28 29 31 31 31 29 26 23 22 22 23 24 26 28 30 32 35 38 41 45 48 53 57 59 57 53 48 44 40 37 36 39 43 48 53 57 60 63 65 65 63 61 60 60 61 63 64 65 65 65 65 64 64 64 65 65 66 66 67 67 67 67 66 65 64 64
37 36 37 37 38 39 38 35 30 25 23 23 23 24 24 25 26 26 26 26 27 27 30 32 35 34 30 25 22 21 21 22 24 25 27 29 31 34 38 41 45 49 54 56 57 56 53 49 44 39 35 33 34 37 42 48 52 56 58 57 56 55 55 55 56 58 61 62 63 63 64 64 64 64 64 64 64 64 64 65 65 64 64 63 62 62
36 36 37 37 37 37 35 31 27 24 23 23 24 26 27 28 28 28 28 27 26 26 28 33 37 38 35 28 24 23 24 25 25 25 26 27 29 31 34 37 41 46 50 53 54 55 53 51 47 43 38 34 32 32 34 38 42 45 47 47 48 49 49 50 51 53 55 56 58 59 60 60 61 61 61 62 62 62 62 62 62 62 62 62 61 61
32 33 34 35 36 36 34 31 28 26 25 26 27 29 30 31 31 30 29 28 27 26 28 32 37 39 36 31 27 27 28 30 29 28 26 26 27 28 31 34 38 42 45 48 50 51 51 49 47 44 40 36 33 31 31 33 35 36 38 39 41 42 43 44 46 47 48 50 51 53 54 55 56 57 58 59 59 60 60 60 60 59 59 59 60 60
26 26 28 30 33 34 34 34 32 30 30 30 31 32 33 32 32 30 29 27 26 26 27 31 35 38 36 32 31 31 32 33 32 30 27 26 25 26 28 30 33 37 40 42 43 45 46 46 44 42 40 38 35 33 32 31 31 32 33 34 35 35 36 38 40 42 43 44 46 47 48 50 51 53 54 55 56 56 56 56 57 57 56 56 56 56
23 23 24 26 28 31 33 34 34 34 34 35 36 37 35 33 31 29 27 26 26 27 28 32 35 36 34 31 32 33 34 34 33 30 27 25 25 25 25 27 29 31 34 36 37 38 39 40 40 39 39 37 36 35 34 32 31 31 31 31 32 32 32 34 35 36 38 39 41 42 43 45 46 47 48 49 50 51 51 51 51 51 51 51 51 51
26 25 25 26 28 29 30 31 32 34 35 37 38 37 35 32 30 28 27 26 27 29 31 33 33 31 29 28 28 30 31 31 30 28 25 24 23 22 22 22 24 26 28 30 31 33 33 34 34 35 35 35 35 35 34 33 32 31 30 30 30 30 31 31 31 31 33 35 36 37 38 39 40 41 41 42 43 43 43 43 43 44 44 44 44 44
26 25 25 26 28 29 28 27 26 28 32 34 35 35 33 31 30 29 28 29 30 32 32 32 29 27 25 24 24 24 24 24 23 23 22 22 21 20 20 20 20 21 22 24 26 27 29 29 29 30 30 31 33 33 34 33 32 31 31 30 30 30 30 29 29 30 31 32 32 33 34 35 35 36 36 37 37 37 38 38 38 38 39 39 39 39
24 22 21 24 26 28 27 23 21 21 25 30 32 33 32 31 30 30 30 30 32 33 33 31 29 27 27 26 26 25 23 20 18 18 19 21 22 22 23 23 22 20 20 20 21 22 24 25 26 26 26 27 29 30 31 31 31 30 30 30 30 30 30 30 30 30 30 31 31 31 32 32 33 34 34 35 35 35 35 36 36 36 36 36 36 36
23 21 21 22 24 25 23 20 18 18 21 26 30 31 31 30 30 29 29 29 30 31 31 31 31 31 31 31 32 31 29 25 20 18 20 22 24 26 27 28 27 24 22 20 20 20 21 21 22 23 24 25 26 27 28 29 29 29 29 29 29 29 30 30 30 30 30 30 31 31 31 31 32 33 34 33 33 34 34 35 35 35 35 35 35 35
24 22 21 21 21 21 20 18 17 18 20 25 28 29 28 26 25 24 24 25 25 26 27 29 31 32 33 35 36 36 35 32 27 24 24 26 28 29 31 32 31 30 27 24 22 21 21 21 22 23 24 25 26 26 26 27 27 28 28 28 28 29 29 30 30 30 31 31 31 31 32 32 33 33 33 33 33 34 35 35 35 35 35 35 36 36
26 24 23 21 20 20 19 19 19 18 19 20 21 20 18 16 15 16 17 18 20 21 22 24 25 27 29 31 33 35 36 35 33 31 29 30 31 33 34 35 35 34 32 30 28 27 26 25 25 25 25 25 26 26 26 26 26 26 27 27 28 29 29 29 30 31 31 32 32 32 32 33 33 33 33 34 35 35 36 36 36 37 37 37 37 38
26 25 24 23 23 23 22 22 21 21 20 18 16 14 12 10 10 10 12 13 15 16 18 19 20 20 21 23 25 28 31 33 33 33 32 32 33 33 34 35 36 36 36 35 34 33 32 32 31 31 29 27 26 25 25 25 24 25 25 27 28 28 29 29 30 31 31 31 32 32 32 33 33 34 34 35 35 35 36 36 37 38 38 38 38 39
Wind_Direction
247 246 246 245 245 244 243 242 241 240 239 240 240 241 242 242 242 241 240 239 238 235 230 226 225 226 229 232 233 234 234 234 234 234 234 234 234 234 233 232 231 231 230 230 229 229 230 233 235 236 237 237 237 237 237 238 238 238 238 239 241 242 243 244 244 245 245 246 246 247 248 249 251 252 253 253 250 246 242 240 240 242 243 244 245 244
246 246 245 245 244 243 242 241 240 239 238 238 239 240 241 241 241 241 239 239 237 234 231 227 225 224 224 227 230 233 235 235 234 234 234 234 234 234 233 232 232 231 231 230 229 228 229 231 233 235 237 237 237 237 237 237 237 238 239 240 241 242 243 243 244 244 244 244 245 246 247 248 250 252 253 253 250 246 242 240 240 241 243 244 244 244
246 245 245 244 243 242 241 240 239 238 238 238 238 238 239 240 241 241 240 238 237 234 232 229 228 225 223 223 226 230 233 235 235 234 234 234 233 233 233 233 232 231 231 230 229 228 228 229 231 234 236 237 237 237 236 236 237 237 238 239 240 241 242 242 243 243 244 244 244 245 246 248 249 251 253 252 249 245 241 239 240 241 243 244 244 243
245 245 244 243 243 242 241 239 238 237 237 237 237 237 238 239 240 240 240 238 237 234 232 230 229 228 225 223 224 227 231 234 235 235 235 235 234 233 233 233 233 232 231 230 229 228 228 229 230 232 234 236 237 237 236 236 236 237 238 239 240 241 241 242 243 243 244 244 245 245 246 247 249 250 251 250 247 242 239 239 240 241 243 243 243 242
244 244 243 243 242 241 240 239 238 237 236 236 237 237 237 238 239 239 239 238 237 235 232 230 230 229 227 224 224 225 229 233 234 235 235 235 234 234 233 234 234 233 232 231 229 228 228 229 230 232 233 234 236 236 236 236 236 237 238 239 240 240 241 242 242 243 244 244 245 246 246 247 248 249 249 247 244 241 238 238 240 241 243 243 242 242
243 243 243 242 242 241 240 239 237 236 235 235 236 236 236 237 237 238 238 238 237 236 233 231 229 229 228 226 225 225 228 231 234 235 235 235 234 234 233 234 235 235 233 232 230 229 228 229 230 231 232 233 234 235 236 236 236 237 238 238 239 240 241 241 242 243 244 244 245 245 246 246 247 248 247 245 243 240 239 239 241 242 243 243 243 243
242 242 242 242 241 240 239 238 237 236 235 234 234 235 236 236 236 237 237 237 237 237 235 232 230 230 230 229 228 227 228 230 233 234 235 234 234 233 233 234 235 236 235 233 232 230 229 229 230 231 232 232 233 234 235 236 236 237 237 238 239 240 240 241 242 243 244 244 245 245 245 245 245 246 246 245 243 241 240 240 241 243 244 244 244 245
242 241 241 241 240 240 239 238 236 235 234 233 233 234 234 235 236 236 236 237 237 237 236 235 233 233 233 233 232 231 229 229 230 232 233 233 232 232 233 234 234 234 234 234 232 231 230 230 231 231 232 232 233 234 235 235 236 236 237 238 238 239 239 241 242 244 244 245 245 245 244 244 244 244 244 245 244 243 242 242 242 243 244 245 246 247
241 241 240 240 239 239 238 237 236 234 233 233 232 233 233 234 235 235 236 236 236 237 237 237 236 237 237 236 236 234 231 228 227 227 229 230 230 231 232 232 232 232 233 233 232 232 231 231 231 232 232 232 232 233 234 235 235 236 236 237 237 238 239 241 242 244 244 245 245 245 244 243 243 243 243 244 245 244 243 242 242 243 245 246 248 250
240 240 239 238 238 238 237 236 235 234 233 232 232 232 232 233 234 235 235 235 236 236 237 238 238 239 239 239 238 235 232 228 226 225 226 227 229 230 231 232 232 232 232 233 233 232 231 231 231 232 232 232 232 233 233 234 234 235 236 236 237 237 239 241 242 243 244 245 245 245 244 243 242 242 242 243 244 244 243 242 242 243 245 248 251 254
239 238 238 237 236 236 236 235 234 232 231 231 231 231 231 232 234 234 235 235 235 236 236 237 238 239 239 239 238 237 234 231 229 228 228 229 229 230 231 232 232 233 233 234 234 233 232 232 232 232 232 232 232 232 233 233 234 234 235 236 236 237 239 241 242 243 244 244 245 244 244 242 242 241 242 243 244 244 243 242 243 245 247 250 253 257
237 237 236 236 235 234 234 233 232 231 230 230 230 230 231 232 233 234 234 234 234 235 236 237 238 239 239 239 239 238 236 235 233 231 231 232 232 232 232 232 232 233 234 235 234 234 233 232 232 232 232 232 232 232 232 233 233 234 235 235 236 237 239 241 242 243 243 244 244 244 243 242 241 241 241 242 243 244 244 244 246 248 251 254 257 260
235 235 234 234 233 232 232 231 230 229 229 228 228 229 230 231 232 233 234 234 234 234 235 237 238 238 238 238 238 238 238 237 236 234 234 234 235 235 235 234 234 234 235 235 234 233 232 232 232 232 232 231 231 231 232 232 233 233 234 235 236 238 240 241 241 242 242 243 243 242 241 240 240 240 240 241 243 244 245 247 250 252 254 257 259 261
233 233 232 231 231 230 229 229 228 227 227 226 227 228 229 230 231 232 233 233 233 234 235 236 237 238 238 238 238 238 238 237 237 236 235 235 235 236 237 237 236 236 236 235 235 233 232 232 231 231 231 231 231 231 231 232 233 233 234 236 238 240 241 241 241 241 241 241 241 240 240 239 239 239 239 240 241 243 246 248 251 253 255 258 260 261
231 230 230 229 228 227 227 226 226 225 225 225 226 227 228 230 231 232 232 233 233 233 234 235 237 238 239 239 238 238 238 238 237 236 235 234 234 235 236 238 238 238 237 236 235 234 233 232 232 231 231 230 230 230 231 232 233 233 235 237 239 240 241 241 240 240 240 239 239 238 237 238 238 238 238 238 240 242 245 247 250 252 255 257 259 261
229 229 228 227 226 225 224 223 223 223 223 224 225 226 227 229 230 231 232 232 232 232 233 234 236 237 238 239 239 239 239 239 238 237 235 234 233 233 234 236 237 238 238 236 235 234 234 233 232 231 231 230 230 230 231 232 233 234 236 238 239 239 239 238 238 238 237 237 236 235 236 236 237 237 237 237 239 241 244 246 249 251 253 255 257 259
228 228 227 226 224 223 222 221 221 221 221 222 224 225 227 228 229 230 231 231 231 232 232 233 234 236 237 238 239 240 240 240 239 237 235 233 232 231 231 232 234 235 235 235 234 234 234 234 233 232 231 230 230 230 231 232 233 235 236 237 238 238 238 237 236 235 235 234 234 234 234 235 236 236 236 237 238 240 243 246 248 250 252 253 255 256
228 227 226 224 223 221 220 219 219 220 220 222 223 225 226 227 229 230 230 231 231 231 231 232 233 235 236 237 239 240 240 241 240 239 236 233 231 229 228 228 230 230 231 231 232 233 233 233 232 232 231 230 229 230 231 232 234 235 236 236 237 237 237 236 234 233 233 233 233 233 234 234 235 235 236 237 238 241 243 245 247 249 251 252 252 253
228 227 225 224 222 220 219 219 219 219 220 222 223 225 226 227 228 229 230 230 230 230 231 232 233 234 235 236 237 238 240 240 240 239 237 233 230 227 226 226 227 228 228 230 231 232 232 231 230 231 231 230 230 230 232 233 234 235 235 235 236 236 235 233 231 231 231 232 233 233 233 234 234 235 236 237 239 241 243 245 247 248 249 250 249 249
228 227 225 224 222 220 219 219 219 220 221 222 223 225 226 227 228 228 229 229 229 230 230 231 232 233 234 236 237 238 239 240 240 239 237 234 231 228 226 226 226 228 229 232 235 236 233 230 228 229 231 231 231 232 233 234 235 235 235 235 234 234 232 231 230 230 232 234 234 234 234 234 234 235 236 237 239 240 242 244 246 247 248 247 246 246
228 227 225 224 222 221 219 219 220 220 222 223 224 225 226 227 227 228 228 228 229 229 230 231 232 233 234 235 237 238 239 240 240 239 237 235 233 230 227 227 227 228 230 233 236 238 236 231 228 229 230 232 232 233 234 236 237 237 236 235 234 234 232 231 231 232 234 236 237 237 237 236 236 236 237 238 240 241 242 244 245 245 245 244 244 244
228 226 224 223 222 221 220 220 220 221 222 223 224 225 226 226 227 227 227 228 228 229 230 231 232 233 234 235 236 238 240 240 240 240 238 237 235 233 230 229 229 229 230 232 236 238 238 234 231 230 231 232 233 234 236 237 239 239 238 237 237 236 234 233 233 234 236 238 239 240 239 239 238 239 239 241 242 243 244 244 244 244 243 242 242 243
226 225 224 223 222 221 220 220 221 222 223 223 224 224 225 225 225 226 226 227 227 228 229 230 231 232 233 235 236 238 240 241 240 240 240 239 237 235 232 231 231 230 231 232 235 239 240 236 233 232 232 232 233 234 236 238 240 240 240 240 239 239 238 237 237 237 239 240 242 242 241 241 240 241 242 242 243 244 244 244 244 242 242 241 242 243
225 224 223 223 222 221 220 221 221 222 223 223 223 223 223 224 224 224 225 225 226 227 228 229 231 232 233 235 236 239 240 241 241 241 241 240 238 236 235 234 233 232 232 232 235 240 242 239 235 233 232 232 233 234 235 238 240 241 241 242 242 242 242 241 240 240 241 242 243 243 242 241 241 241 242 243 244 244 244 243 242 241 241 242 243 244
223 222 222 221 221 220 220 220 220 221 222 222 222 222 222 223 223 223 224 224 225 226 228 229 230 231 233 234 236 238 241 241 241 241 241 240 239 238 237 236 236 235 234 234 236 240 244 243 239 234 232 232 232 233 235 236 238 240 241 242 243 243 243 242 242 242 242 242 242 242 241 241 241 241 242 242 243 243 243 242 242 241 242 243 244 245
221 220 219 219 219 219 219 219 219 220 220 220 221 221 221 221 221 222 222 223 224 225 227 228 229 230 231 232 235 238 240 241 241 241 241 241 241 240 239 238 238 238 237 236 238 241 245 246 244 239 236 234 233 234 235 236 238 240 242 243 243 242 242 242 241 241 241 241 241 241 240 240 241 241 241 242 243 243 243 242 242 242 242 243 244 246
218 217 217 217 217 217 217 218 218 218 219 219 219 219 219 219 220 220 221 222 223 223 224 226 227 228 229 231 234 238 240 241 241 241 241 241 241 241 240 240 240 239 239 238 239 241 245 247 247 245 241 238 236 236 236 237 239 241 243 243 243 242 242 242 242 241 241 241 242 242 242 242 242 242 242 243 243 243 243 242 242 241 242 242 244 245
213 213 214 214 215 215 215 215 216 216 216 216 216 217 217 217 218 219 220 220 220 221 222 224 224 224 224 226 231 236 239 240 240 241 241 241 241 241 241 240 240 240 239 238 239 241 244 247 248 247 245 242 240 240 240 240 242 243 245 244 244 243 243 244 244 244 244 244 244 244 244 244 244 243 243 244 244 243 243 242 241 240 240 241 243 244
208 209 209 210 211 212 212 212 212 213 213 213 213 213 214 215 215 216 216 216 216 217 219 220 218 217 217 221 227 233 237 239 240 240 241 241 240 240 240 239 239 238 238 237 238 240 243 245 247 247 246 244 243 242 243 244 245 247 248 247 247 246 246 246 246 246 246 246 246 246 245 245 245 244 244 244 244 243 242 241 240 239 240 241 242 244
201 203 204 206 207 207 208 208 208 208 208 208 209 209 210 211 212 212 212 212 213 214 214 213 212 212 214 219 226 232 236 238 239 240 241 241 240 239 238 237 237 236 235 235 236 238 241 244 245 246 246 245 244 244 245 246 249 251 251 251 250 249 248 247 246 245 244 244 244 244 244 244 244 244 244 243 243 242 240 240 239 239 240 242 244 245
195 197 198 200 201 202 202 202 202 202 203 203 203 204 205 206 207 208 209 209 209 209 210 210 210 212 216 222 228 233 236 238 239 240 240 240 239 237 236 234 234 234 233 232 233 236 239 242 244 245 246 246 245 245 246 247 250 251 252 251 249 247 245 243 242 241 241 241 241 242 242 243 243 243 243 242 241 240 239 239 239 240 242 244 246 247
188 191 192 194 195 196 196 196 196 196 197 197 198 199 200 201 203 204 204 205 206 208 210 210 211 214 220 226 230 234 236 237 239 239 239 239 238 236 234 231 230 230 230 230 231 234 238 240 242 244 246 246 246 246 246 247 248 249 249 246 243 241 240 238 238 238 238 239 240 240 241 242 242 241 241 240 239 238 238 238 240 242 244 245 245 245
182 184 186 187 188 189 190 190 190 191 191 192 193 194 194 195 196 198 200 202 206 208 210 211 213 217 223 228 232 234 236 237 238 238 238 238 237 235 232 229 228 227 227 227 230 233 236 238 240 242 244 246 246 246 246 246 246 246 244 239 235 233 233 233 234 235 236 237 238 239 239 239 239 238 238 237 237 237 238 239 241 243 244 244 243 241
177 178 180 181 182 183 184 185 185 185 186 186 186 187 188 189 192 196 199 203 206 208 209 211 214 220 225 229 232 234 236 237 238 238 237 237 236 234 231 228 226 225 224 224 227 230 233 235 237 240 242 244 245 245 244 244 244 242 239 233 230 228 228 229 230 231 233 235 236 236 236 236 236 236 236 236 236 238 239 241 243 244 244 243 241 240
172 173 175 176 177 178 179 179 179 179 180 180 181 183 185 189 193 197 200 203 205 206 207 211 217 222 225 229 232 234 235 236 237 237 237 236 235 234 232 229 226 224 222 222 224 227 229 232 234 237 239 241 243 243 243 242 240 238 234 229 226 225 225 226 227 229 230 232 233 234 235 235 235 236 236 237 239 240 242 243 244 244 244 243 241 240
168 170 171 173 174 174 174 175 175 175 175 177 179 182 186 189 193 195 198 200 202 204 208 213 217 220 223 226 229 232 234 235 235 236 235 235 234 233 232 229 227 224 222 221 222 224 226 228 230 233 236 239 240 241 241 240 238 235 231 228 226 225 225 226 227 228 230 232 234 235 236 237 237 237 238 239 240 241 242 242 243 243 243 242 241 240
165 167 169 171 172 172 173 173 173 172 173 175 178 181 183 185 187 189 191 194 197 201 205 208 209 211 216 222 227 230 231 232 233 234 234 233 233 232 232 230 227 224 222 221 220 221 222 224 226 229 231 234 236 238 238 238 236 234 231 229 227 227 227 227 228 229 230 232 235 236 237 237 237 237 238 238 239 240 240 241 241 241 241 240 240 239
163 165 168 170 172 173 173 172 171 170 171 173 175 176 177 178 178 180 182 186 189 192 194 194 196 202 211 218 223 226 227 229 230 230 231 231 231 231 231 230 228 225 222 221 220 220 221 223 225 226 226 228 229 231 233 233 233 232 231 230 229 228 228 228 228 229 230 232 234 236 236 237 236 236 236 237 237 238 238 238 239 239 239 238 238 238
161 164 167 170 173 174 174 173 171 170 171 172 173 173 172 172 172 174 177 180 183 185 187 190 194 201 209 215 217 218 220 223 225 226 226 228 229 229 229 229 228 226 224 222 221 221 223 224 226 226 225 223 223 224 226 227 227 228 228 228 228 227 227 226 226 227 229 231 232 233 234 235 235 235 235 235 235 235 235 236 236 237 237 237 237 237
160 163 166 169 172 175 176 175 174 173 173 173 172 171 170 170 171 174 177 179 181 184 188 194 198 202 207 209 208 207 208 213 217 221 223 225 226 227 228 228 227 226 225 223 223 223 224 226 228 228 226 223 220 218 218 219 220 221 222 222 223 224 224 223 223 224 225 227 228 229 231 231 232 233 233 233 233 233 234 234 235 235 236 236 237 237
162 164 167 169 172 175 178 179 179 177 174 172 171 170 169 170 172 176 180 182 185 189 195 200 201 201 202 201 198 195 196 201 208 216 222 224 225 226 226 226 226 225 225 225 225 225 226 228 229 229 228 226 222 218 214 212 212 212 213 215 217 218 219 219 219 220 221 222 223 225 226 227 228 229 230 231 232 232 233 233 234 235 235 236 237 238
161 165 168 171 173 175 177 179 179 177 174 171 169 168 167 169 172 176 179 183 188 196 203 205 202 198 197 194 191 190 193 198 205 214 221 224 225 225 225 225 225 225 225 225 226 227 228 229 229 230 229 228 225 221 216 212 208 206 206 208 210 212 213 215 216 217 217 218 220 221 222 223 225 226 228 229 230 231 232 233 234 235 236 236 237 238
160 166 171 175 177 177 177 177 176 174 172 170 168 166 166 169 172 177 182 188 196 204 209 204 198 194 192 190 188 189 192 198 205 214 221 223 224 223 223 223 224 224 225 225 226 227 228 229 230 230 229 228 227 225 221 216 211 207 205 205 205 207 208 211 213 215 216 217 218 219 220 221 223 225 227 228 230 231 232 233 234 235 236 236 237 238
154 158 162 167 172 175 177 177 176 175 173 171 169 168 169 173 179 186 194 201 207 208 206 199 195 193 193 191 189 189 192 198 205 212 217 218 218 218 219 220 221 222 223 224 226 227 228 229 230 230 229 228 228 226 225 222 218 214 211 208 206 205 206 208 210 211 213 215 216 218 219 221 223 224 226 228 229 231 232 233 234 235 236 237 238 238
140 140 141 145 152 160 169 175 179 180 179 176 175 175 178 184 192 200 206 208 207 203 198 195 193 193 193 192 189 189 192 197 202 206 208 208 208 209 210 213 216 219 221 223 224 226 227 228 229 229 229 228 227 227 226 225 223 221 218 216 213 211 209 209 209 210 212 214 215 217 219 221 223 224 226 228 229 231 232 233 234 235 237 238 239 239
135 136 137 139 143 147 154 163 173 181 186 187 186 187 190 195 200 204 205 203 200 196 194 193 192 190 187 184 183 184 186 190 194 196 195 193 192 192 194 199 206 212 216 219 222 224 225 226 227 227 227 227 227 227 226 226 226 225 225 223 222 220 218 216 215 215 215 215 216 218 219 221 223 224 226 228 229 231 232 234 235 236 238 239 240 241
137 141 144 146 147 148 148 150 155 167 178 185 188 190 191 193 194 194 194 194 193 192 192 191 189 186 183 181 180 181 181 183 185 184 182 180 180 181 184 188 194 201 207 212 217 220 223 224 225 225 226 226 225 226 226 226 226 227 227 228 228 227 227 225 224 223 222 221 221 222 223 224 225 227 229 230 231 233 234 236 237 238 239 240 241 243
136 141 145 148 151 151 151 147 143 145 152 161 167 171 173 175 176 178 180 182 184 186 188 188 187 186 185 185 185 185 184 183 182 180 177 177 179 182 185 188 190 194 198 204 209 213 216 218 220 221 221 222 222 223 224 224 225 226 227 229 230 232 232 232 232 230 229 229 228 228 229 229 231 232 233 235 236 237 238 239 239 240 241 242 244 246
133 138 142 147 151 153 154 152 148 143 140 142 145 149 153 156 159 162 166 169 172 176 179 182 184 185 186 187 187 187 185 185 184 183 182 182 184 186 188 189 191 192 194 197 201 204 207 210 212 215 216 216 217 218 221 223 224 226 227 229 231 234 235 236 236 236 236 235 235 235 235 235 236 236 238 239 241 242 243 243 244 245 246 248 249 251
134 138 143 148 152 156 158 159 159 158 153 147 144 145 148 153 159 162 164 166 167 169 171 174 178 181 183 185 185 184 183 184 185 186 187 187 187 188 189 189 190 191 192 193 195 197 199 201 204 207 210 212 214 215 217 220 224 227 229 232 234 236 237 238 239 240 240 240 240 240 240 240 241 241 242 244 245 246 247 248 249 250 251 253 255 256
138 141 145 150 155 159 162 164 167 168 168 167 165 164 166 173 179 182 182 180 178 177 176 177 178 180 182 183 183 182 182 183 185 187 188 188 188 188 188 188 188 189 190 191 192 193 194 195 196 198 201 205 209 212 215 219 224 229 233 235 237 238 239 240 241 241 241 242 242 243 243 244 245 246 246 247 248 249 251 251 252 253 254 256 257 258
Height
5499 5504 5507 5510 5514 5518 5521 5525 5527 5530 5532 5534 5535 5536 5537 5539 5541 5545 5548 5551 5553 5555 5558 5560 5564 5567 5571 5574 5577 5580 5582 5585 5588 5591 5595 5598 5601 5605 5608 5612 5616 5619 5623 5626 5629 5632 5636 5640 5643 5646 5649 5652 5655 5658 5660 5663 5665 5667 5670 5672 5674 5676 5679 5681 5683 5684 5686 5689 5692 5695 5697 5698 5697 5695 5695 5696 5698 5701 5704 5706 5704 5703 5705 5707 5709 5711
5488 5493 5497 5502 5506 5510 5513 5517 5520 5522 5525 5527 5529 5530 5531 5533 5536 5539 5543 5546 5549 5551 5552 5554 5555 5559 5564 5567 5571 5574 5577 5579 5582 5585 5588 5591 5595 5598 5602 5605 5610 5613 5616 5620 5623 5626 5630 5633 5637 5640 5644 5647 5650 5653 5655 5658 5660 5662 5665 5667 5669 5671 5673 5676 5678 5680 5682 5684 5687 5690 5692 5693 5693 5692 5691 5691 5692 5694 5697 5698 5698 5699 5701 5703 5706 5708
5477 5482 5488 5494 5497 5501 5504 5509 5512 5515 5516 5519 5521 5523 5525 5528 5530 5534 5537 5540 5543 5545 5546 5547 5549 5552 5556 5560 5564 5568 5571 5573 5576 5579 5582 5585 5589 5592 5595 5599 5603 5607 5610 5614 5617 5620 5623 5627 5631 5635 5638 5641 5644 5647 5650 5653 5655 5657 5660 5662 5664 5666 5669 5671 5673 5675 5678 5679 5681 5683 5685 5687 5687 5687 5686 5687 5687 5688 5690 5692 5694 5695 5697 5699 5702 5705
5467 5473 5479 5484 5488 5492 5496 5501 5505 5508 5510 5512 5514 5517 5520 5522 5524 5527 5530 5534 5536 5538 5539 5541 5542 5545 5548 5552 5556 5561 5565 5567 5570 5573 5576 5579 5583 5586 5589 5592 5596 5600 5604 5607 5611 5614 5617 5621 5625 5628 5632 5635 5639 5642 5645 5648 5650 5652 5655 5657 5659 5661 5664 5666 5668 5670 5672 5674 5675 5677 5679 5681 5682 5682 5682 5682 5683 5684 5686 5688 5690 5691 5693 5695 5697 5700
5458 5463 5468 5473 5478 5483 5488 5493 5497 5501 5504 5505 5508 5511 5514 5516 5519 5521 5524 5526 5529 5530 5532 5535 5536 5539 5542 5546 5550 5554 5558 5561 5564 5567 5570 5573 5577 5580 5583 5587 5590 5594 5598 5601 5605 5608 5611 5615 5618 5622 5626 5630 5633 5637 5640 5643 5645 5647 5650 5652 5654 5656 5659 5661 5664 5665 5667 5669 5670 5672 5674 5676 5677 5677 5677 5678 5679 5680 5682 5683 5685 5686 5688 5690 5692 5694
5448 5453 5458 5464 5470 5475 5480 5485 5490 5494 5497 5500 5502 5505 5507 5509 5512 5514 5517 5519 5521 5523 5526 5529 5532 5534 5536 5540 5544 5547 5552 5555 5558 5560 5564 5567 5571 5574 5578 5581 5585 5588 5592 5595 5599 5602 5605 5608 5612 5616 5620 5624 5628 5631 5635 5638 5640 5643 5645 5647 5649 5652 5654 5656 5659 5661 5662 5664 5666 5668 5670 5672 5673 5673 5673 5673 5675 5678 5680 5679 5680 5682 5684 5685 5688 5690
5437 5443 5448 5455 5461 5466 5471 5477 5483 5487 5490 5492 5495 5497 5500 5502 5505 5508 5511 5513 5514 5517 5520 5524 5527 5530 5531 5534 5538 5541 5545 5548 5551 5554 5557 5561 5565 5568 5572 5575 5579 5582 5586 5590 5593 5596 5600 5603 5606 5610 5614 5618 5622 5626 5630 5633 5635 5638 5640 5642 5645 5647 5649 5652 5654 5655 5657 5660 5662 5664 5666 5667 5668 5668 5668 5670 5673 5676 5676 5675 5675 5678 5680 5681 5684 5686
5426 5434 5440 5446 5452 5457 5463 5470 5475 5480 5482 5485 5487 5490 5494 5496 5499 5502 5504 5506 5508 5511 5515 5519 5522 5525 5526 5528 5531 5534 5538 5541 5545 5548 5551 5555 5559 5562 5566 5570 5573 5577 5580 5583 5587 5590 5594 5597 5601 5604 5608 5613 5617 5620 5624 5627 5630 5633 5635 5637 5640 5642 5644 5647 5649 5650 5652 5655 5658 5660 5661 5663 5663 5664 5665 5668 5671 5673 5670 5670 5672 5674 5676 5678 5680 5683
5417 5424 5430 5437 5442 5448 5454 5461 5467 5471 5474 5477 5480 5483 5487 5490 5493 5495 5498 5500 5504 5507 5510 5514 5517 5519 5520 5521 5524 5527 5530 5534 5538 5542 5545 5549 5553 5556 5559 5563 5566 5570 5573 5576 5580 5584 5588 5591 5595 5598 5602 5607 5611 5615 5619 5622 5625 5628 5630 5632 5635 5637 5640 5642 5644 5645 5648 5650 5653 5655 5657 5658 5659 5660 5662 5665 5668 5667 5665 5666 5668 5670 5672 5674 5676 5678
5407 5414 5420 5427 5433 5440 5446 5453 5459 5464 5466 5469 5473 5477 5480 5484 5486 5489 5492 5495 5499 5502 5505 5507 5510 5512 5514 5515 5518 5520 5524 5527 5531 5535 5538 5542 5546 5550 5553 5556 5560 5564 5567 5571 5575 5578 5582 5585 5589 5593 5597 5601 5605 5610 5613 5616 5620 5622 5625 5628 5630 5632 5635 5638 5640 5641 5644 5646 5649 5651 5652 5654 5655 5656 5658 5661 5662 5662 5661 5663 5664 5666 5668 5670 5673 5673
5397 5404 5411 5418 5425 5432 5438 5445 5450 5455 5459 5462 5466 5470 5475 5479 5481 5483 5486 5489 5493 5496 5499 5501 5503 5505 5508 5510 5513 5515 5519 5522 5525 5529 5532 5536 5540 5544 5548 5551 5555 5559 5563 5566 5570 5573 5576 5580 5584 5588 5592 5596 5600 5604 5608 5611 5614 5617 5620 5622 5625 5628 5631 5633 5635 5637 5640 5642 5644 5646 5649 5651 5652 5653 5654 5655 5657 5657 5657 5658 5660 5661 5662 5666 5668 5667
5388 5395 5402 5409 5417 5424 5430 5436 5442 5448 5453 5456 5460 5465 5469 5473 5475 5477 5479 5483 5486 5490 5492 5494 5497 5500 5503 5505 5508 5511 5514 5517 5520 5524 5527 5531 5535 5539 5543 5547 5550 5554 5558 5561 5565 5568 5571 5574 5578 5582 5587 5591 5595 5599 5603 5605 5609 5611 5615 5617 5620 5623 5626 5628 5630 5633 5635 5637 5640 5642 5645 5647 5648 5649 5650 5651 5653 5654 5653 5654 5654 5655 5657 5659 5660 5660
5380 5386 5393 5401 5408 5416 5423 5429 5435 5440 5446 5450 5454 5458 5461 5465 5467 5469 5472 5476 5480 5484 5486 5488 5491 5494 5497 5500 5503 5506 5510 5513 5516 5519 5523 5527 5531 5535 5538 5542 5546 5550 5553 5556 5560 5563 5565 5569 5573 5577 5581 5586 5590 5594 5597 5600 5603 5606 5609 5612 5615 5618 5620 5623 5625 5628 5630 5633 5635 5638 5641 5643 5644 5645 5647 5648 5649 5650 5650 5650 5650 5651 5652 5653 5655 5655
5373 5379 5386 5393 5401 5408 5415 5421 5428 5434 5439 5443 5446 5450 5454 5457 5460 5464 5467 5471 5475 5479 5481 5483 5485 5488 5491 5495 5499 5502 5505 5508 5511 5514 5518 5522 5526 5530 5533 5537 5540 5544 5548 5551 5555 5558 5560 5564 5567 5571 5576 5581 5585 5589 5592 5595 5598 5601 5604 5607 5610 5613 5615 5618 5620 5622 5625 5627 5630 5633 5635 5638 5640 5641 5643 5645 5646 5647 5647 5648 5649 5649 5649 5650 5650 5652
5366 5372 5379 5386 5393 5401 5408 5415 5421 5426 5431 5436 5440 5444 5447 5451 5455 5459 5462 5466 5470 5473 5476 5478 5480 5483 5485 5490 5493 5496 5500 5503 5505 5509 5513 5517 5521 5525 5528 5532 5535 5539 5542 5547 5550 5552 5555 5558 5562 5566 5570 5575 5580 5584 5587 5590 5593 5596 5599 5602 5605 5608 5610 5613 5615 5618 5620 5622 5625 5627 5629 5632 5634 5636 5639 5641 5643 5644 5645 5646 5647 5648 5648 5648 5648 5648
5360 5366 5373 5379 5386 5394 5402 5409 5414 5420 5425 5430 5434 5438 5442 5445 5449 5452 5456 5460 5464 5468 5471 5474 5476 5478 5480 5484 5487 5490 5494 5497 5500 5503 5507 5511 5515 5520 5524 5528 5531 5534 5538 5541 5545 5547 5549 5552 5556 5561 5566 5570 5575 5579 5582 5585 5588 5591 5594 5597 5600 5602 5605 5607 5610 5612 5615 5617 5619 5621 5624 5626 5628 5630 5633 5636 5638 5640 5642 5643 5645 5646 5647 5647 5647 5647
5355 5361 5367 5373 5381 5389 5396 5403 5408 5413 5418 5423 5428 5432 5435 5439 5442 5446 5450 5455 5459 5463 5467 5470 5471 5474 5476 5479 5482 5486 5489 5491 5494 5497 5501 5506 5511 5515 5520 5524 5527 5530 5533 5536 5540 5542 5544 5547 5550 5555 5561 5565 5570 5574 5577 5580 5583 5586 5589 5592 5595 5597 5599 5601 5604 5606 5609 5611 5613 5616 5618 5621 5623 5625 5628 5630 5633 5635 5638 5640 5641 5643 5644 5645 5646 5646
5351 5357 5362 5369 5376 5384 5391 5397 5402 5408 5413 5417 5421 5425 5429 5433 5437 5441 5446 5450 5455 5458 5462 5464 5467 5470 5473 5476 5479 5482 5484 5486 5488 5491 5496 5501 5506 5511 5516 5520 5523 5525 5528 5532 5535 5537 5539 5542 5546 5551 5556 5561 5565 5569 5572 5575 5578 5581 5584 5587 5590 5592 5594 5596 5598 5601 5604 5605 5608 5610 5613 5615 5618 5620 5622 5625 5628 5630 5633 5635 5636 5638 5640 5641 5642 5644
5347 5352 5359 5365 5372 5379 5385 5392 5397 5402 5407 5411 5415 5419 5423 5428 5432 5437 5442 5445 5449 5453 5456 5459 5462 5466 5470 5473 5475 5477 5480 5482 5483 5486 5491 5497 5502 5506 5511 5515 5518 5520 5524 5527 5530 5532 5534 5537 5542 5547 5552 5556 5560 5564 5567 5569 5572 5575 5579 5582 5585 5587 5589 5591 5593 5596 5599 5601 5603 5605 5607 5610 5612 5615 5617 5620 5622 5625 5628 5630 5632 5633 5635 5636 5638 5639
5343 5349 5355 5362 5369 5375 5381 5387 5393 5397 5401 5405 5409 5414 5418 5423 5428 5432 5437 5440 5444 5448 5452 5455 5459 5462 5465 5469 5471 5474 5476 5478 5480 5483 5487 5492 5496 5500 5505 5510 5513 5516 5519 5523 5525 5526 5528 5532 5537 5542 5547 5552 5556 5559 5561 5564 5566 5569 5573 5576 5580 5582 5585 5587 5589 5591 5594 5596 5598 5600 5603 5605 5608 5610 5613 5615 5617 5620 5623 5625 5627 5628 5630 5631 5632 5633
5341 5347 5353 5360 5365 5371 5377 5383 5388 5392 5397 5400 5405 5410 5415 5419 5424 5428 5432 5436 5440 5444 5448 5451 5455 5458 5461 5465 5468 5470 5471 5474 5476 5479 5482 5486 5490 5495 5500 5504 5508 5511 5515 5518 5520 5522 5524 5527 5532 5537 5542 5546 5550 5553 5556 5558 5561 5564 5567 5570 5573 5576 5579 5581 5584 5586 5590 5592 5594 5597 5599 5601 5603 5605 5608 5610 5612 5614 5616 5619 5620 5623 5625 5626 5626 5627
5340 5345 5351 5358 5363 5369 5374 5379 5384 5388 5392 5397 5401 5406 5411 5415 5420 5424 5428 5432 5436 5440 5443 5447 5450 5453 5457 5461 5464 5466 5467 5470 5472 5473 5476 5481 5486 5490 5494 5499 5503 5506 5510 5513 5516 5518 5520 5523 5527 5531 5536 5541 5545 5548 5551 5553 5555 5558 5561 5565 5567 5570 5573 5576 5579 5581 5583 5586 5588 5591 5593 5595 5597 5600 5602 5605 5606 5608 5610 5612 5614 5616 5619 5620 5621 5621
5338 5344 5350 5356 5361 5366 5371 5377 5381 5384 5388 5393 5397 5402 5406 5411 5415 5420 5423 5427 5432 5435 5439 5442 5445 5450 5454 5458 5460 5462 5464 5466 5467 5469 5472 5478 5483 5486 5489 5494 5498 5501 5505 5508 5511 5514 5516 5518 5521 5525 5530 5535 5539 5543 5546 5549 5551 5554 5557 5560 5563 5565 5568 5570 5573 5575 5578 5580 5583 5586 5588 5590 5592 5595 5597 5599 5600 5602 5604 5606 5608 5610 5613 5615 5616 5616
5337 5343 5348 5353 5358 5363 5368 5373 5376 5380 5384 5389 5394 5398 5403 5407 5412 5416 5419 5424 5428 5432 5436 5440 5444 5448 5452 5455 5458 5460 5461 5462 5463 5465 5470 5475 5478 5480 5484 5489 5493 5497 5500 5504 5508 5511 5513 5514 5516 5520 5525 5529 5533 5537 5541 5544 5547 5550 5552 5555 5558 5560 5563 5565 5568 5570 5573 5575 5578 5581 5584 5585 5588 5590 5592 5594 5595 5597 5599 5601 5603 5606 5609 5610 5611 5612
5336 5341 5346 5350 5355 5360 5364 5368 5372 5376 5381 5385 5390 5395 5400 5404 5408 5412 5417 5422 5426 5430 5434 5438 5442 5445 5449 5452 5455 5457 5457 5457 5460 5463 5467 5471 5474 5476 5480 5485 5489 5492 5495 5500 5504 5508 5510 5511 5513 5516 5520 5524 5528 5531 5535 5540 5543 5546 5549 5551 5554 5556 5559 5561 5563 5565 5568 5570 5574 5576 5579 5581 5583 5585 5587 5589 5590 5592 5594 5596 5599 5601 5604 5606 5608 5608
5334 5339 5344 5348 5352 5357 5361 5366 5370 5374 5379 5384 5388 5393 5397 5402 5406 5410 5415 5420 5424 5428 5432 5435 5439 5442 5445 5450 5453 5454 5453 5454 5457 5461 5465 5467 5470 5473 5477 5481 5485 5488 5491 5497 5502 5505 5506 5507 5510 5513 5517 5520 5523 5526 5530 5534 5539 5542 5545 5547 5550 5553 5555 5557 5560 5562 5564 5566 5569 5572 5575 5576 5579 5580 5582 5584 5586 5588 5590 5592 5595 5597 5600 5602 5603 5603
5333 5338 5342 5346 5351 5355 5360 5364 5368 5373 5377 5382 5386 5391 5395 5400 5405 5409 5413 5417 5421 5425 5429 5433 5436 5440 5445 5449 5451 5450 5450 5451 5455 5458 5461 5464 5467 5471 5474 5478 5481 5485 5489 5494 5499 5502 5503 5504 5506 5510 5513 5516 5518 5521 5525 5529 5534 5537 5540 5543 5546 5549 5551 5554 5556 5558 5560 5562 5565 5567 5570 5572 5574 5575 5577 5580 5582 5584 5586 5588 5590 5593 5595 5597 5597 5597
5332 5336 5341 5345 5349 5354 5358 5362 5367 5371 5376 5380 5385 5390 5394 5399 5403 5407 5411 5414 5419 5423 5427 5431 5435 5440 5444 5448 5448 5446 5446 5449 5453 5455 5458 5462 5466 5469 5471 5474 5478 5482 5486 5491 5495 5498 5500 5501 5503 5506 5510 5512 5514 5517 5520 5524 5528 5532 5536 5539 5542 5545 5547 5549 5551 5553 5555 5557 5560 5562 5564 5566 5568 5570 5572 5575 5577 5579 5581 5584 5585 5587 5589 5590 5591 5591
5331 5335 5340 5344 5348 5353 5357 5361 5366 5370 5375 5379 5383 5388 5393 5397 5401 5405 5408 5413 5418 5422 5425 5429 5433 5438 5442 5444 5443 5442 5444 5448 5450 5453 5455 5460 5464 5466 5468 5472 5476 5480 5484 5488 5492 5495 5497 5499 5500 5502 5505 5508 5510 5513 5516 5519 5522 5526 5530 5534 5537 5540 5542 5544 5546 5548 5550 5552 5555 5557 5560 5561 5563 5565 5568 5570 5572 5575 5576 5578 5580 5581 5582 5583 5584 5585
5330 5335 5339 5343 5347 5352 5356 5360 5365 5369 5373 5378 5382 5387 5391 5395 5399 5403 5408 5412 5417 5421 5424 5427 5431 5435 5437 5438 5439 5440 5443 5446 5448 5450 5454 5459 5462 5463 5466 5470 5475 5477 5480 5485 5490 5493 5494 5495 5496 5499 5501 5504 5506 5510 5513 5516 5519 5522 5526 5529 5533 5535 5538 5540 5542 5544 5546 5549 5551 5553 5555 5557 5559 5561 5563 5565 5568 5570 5571 5572 5574 5575 5576 5577 5578 5579
5330 5334 5338 5342 5346 5351 5355 5360 5364 5368 5372 5376 5381 5385 5390 5394 5398 5403 5407 5412 5415 5419 5422 5425 5427 5429 5431 5434 5436 5439 5441 5443 5445 5449 5453 5457 5458 5460 5464 5469 5472 5475 5478 5484 5487 5490 5490 5491 5493 5496 5498 5500 5504 5507 5510 5514 5517 5520 5522 5526 5529 5532 5535 5537 5539 5541 5543 5545 5546 5548 5550 5551 5554 5556 5558 5560 5563 5564 5566 5567 5568 5570 5571 5572 5574 5575
5330 5334 5338 5342 5346 5350 5355 5359 5363 5367 5371 5376 5380 5385 5389 5393 5397 5401 5406 5410 5414 5417 5420 5421 5423 5425 5428 5431 5434 5436 5439 5441 5444 5447 5451 5454 5455 5457 5462 5467 5470 5472 5477 5482 5485 5486 5487 5489 5491 5493 5495 5498 5501 5504 5508 5511 5515 5518 5520 5523 5526 5529 5531 5533 5535 5536 5538 5540 5541 5543 5544 5546 5548 5551 5553 5555 5558 5560 5561 5563 5564 5565 5567 5568 5569 5570
5330 5334 5338 5342 5346 5350 5354 5359 5363 5367 5371 5375 5380 5384 5388 5392 5396 5400 5404 5408 5412 5414 5415 5417 5420 5424 5427 5430 5433 5435 5437 5440 5442 5445 5449 5451 5453 5455 5460 5464 5467 5470 5475 5480 5482 5484 5485 5487 5489 5491 5493 5495 5498 5501 5505 5509 5512 5515 5518 5520 5523 5525 5527 5529 5530 5532 5534 5535 5536 5538 5540 5542 5544 5546 5549 5551 5553 5555 5557 5558 5560 5561 5562 5563 5563 5564
5330 5334 5338 5342 5346 5350 5354 5358 5363 5367 5371 5375 5379 5383 5387 5391 5395 5400 5403 5406 5409 5410 5412 5415 5419 5422 5426 5429 5431 5434 5436 5439 5440 5443 5446 5449 5451 5454 5457 5461 5464 5467 5472 5476 5479 5481 5483 5485 5486 5489 5490 5492 5495 5498 5502 5506 5509 5512 5515 5517 5519 5521 5524 5525 5527 5528 5530 5531 5533 5535 5537 5539 5541 5543 5545 5547 5549 5550 5552 5553 5554 5555 5556 5557 5558 5559
5330 5333 5337 5341 5345 5350 5354 5358 5362 5366 5371 5375 5379 5382 5386 5390 5394 5397 5400 5403 5405 5408 5411 5415 5418 5422 5425 5427 5430 5432 5434 5436 5438 5441 5444 5447 5449 5451 5455 5458 5461 5465 5469 5473 5476 5478 5480 5482 5484 5486 5488 5489 5491 5495 5498 5502 5505 5508 5511 5513 5515 5517 5519 5521 5523 5525 5526 5528 5530 5532 5534 5535 5537 5539 5541 5543 5544 5545 5546 5547 5549 5550 5551 5552 5553 5554
5330 5334 5337 5341 5345 5349 5353 5358 5362 5366 5370 5375 5378 5382 5386 5389 5392 5395 5398 5400 5404 5407 5411 5414 5417 5421 5424 5426 5428 5430 5432 5434 5436 5439 5442 5445 5447 5450 5453 5455 5458 5461 5466 5470 5473 5475 5477 5479 5481 5483 5485 5487 5489 5491 5494 5497 5500 5504 5507 5509 5511 5513 5515 5517 5519 5521 5523 5524 5526 5528 5530 5531 5533 5535 5536 5537 5538 5540 5541 5542 5544 5545 5546 5548 5549 5550
5330 5334 5337 5341 5345 5349 5353 5357 5362 5366 5370 5374 5378 5381 5384 5387 5390 5394 5397 5400 5403 5407 5410 5413 5416 5419 5422 5424 5426 5428 5430 5432 5435 5437 5440 5442 5445 5447 5450 5453 5455 5459 5463 5467 5470 5472 5475 5477 5479 5481 5483 5485 5486 5488 5490 5493 5496 5500 5503 5505 5507 5509 5511 5512 5515 5517 5519 5520 5522 5524 5525 5527 5528 5529 5530 5532 5533 5534 5536 5537 5539 5540 5542 5543 5544 5545
5331 5334 5338 5341 5345 5350 5354 5358 5362 5366 5370 5374 5377 5380 5384 5387 5390 5393 5396 5399 5402 5405 5408 5411 5415 5418 5420 5421 5423 5425 5428 5430 5433 5435 5438 5440 5443 5445 5448 5450 5453 5457 5461 5464 5466 5469 5472 5475 5477 5479 5481 5482 5484 5485 5487 5490 5492 5495 5498 5500 5503 5505 5507 5509 5510 5513 5515 5516 5518 5519 5520 5522 5523 5524 5525 5526 5528 5530 5531 5533 5534 5535 5537 5538 5539 5540
5332 5335 5339 5343 5347 5351 5355 5359 5363 5367 5370 5374 5377 5380 5383 5386 5389 5392 5395 5398 5401 5404 5407 5410 5413 5416 5418 5420 5421 5424 5426 5429 5431 5433 5435 5438 5441 5443 5446 5448 5451 5455 5458 5461 5464 5467 5470 5472 5474 5476 5478 5480 5481 5483 5485 5487 5489 5491 5494 5496 5499 5501 5503 5505 5506 5508 5510 5512 5513 5515 5516 5517 5518 5519 5520 5522 5523 5525 5526 5527 5529 5530 5531 5533 5534 5536
5333 5336 5340 5345 5349 5352 5356 5360 5363 5367 5370 5373 5376 5380 5382 5386 5389 5392 5395 5398 5400 5403 5406 5409 5411 5414 5416 5418 5420 5423 5425 5427 5429 5431 5434 5436 5439 5441 5444 5446 5449 5452 5455 5458 5460 5463 5466 5469 5471 5474 5476 5477 5479 5480 5482 5484 5485 5487 5490 5492 5495 5498 5499 5500 5502 5504 5505 5507 5509 5510 5511 5512 5514 5515 5516 5517 5519 5520 5521 5522 5524 5525 5527 5528 5530 5531
5335 5338 5342 5346 5350 5354 5357 5360 5364 5367 5370 5373 5376 5379 5382 5385 5389 5392 5395 5398 5400 5403 5405 5407 5410 5413 5415 5417 5419 5422 5425 5427 5428 5430 5431 5434 5436 5438 5441 5444 5446 5449 5452 5455 5457 5460 5463 5465 5468 5471 5473 5475 5476 5477 5479 5480 5482 5484 5486 5489 5491 5493 5495 5496 5498 5499 5501 5502 5504 5505 5507 5508 5509 5510 5511 5512 5514 5515 5516 5518 5519 5521 5522 5524 5526 5527
5337 5340 5344 5347 5350 5354 5357 5361 5364 5367 5370 5373 5376 5379 5382 5385 5389 5392 5394 5397 5400 5402 5403 5405 5408 5411 5413 5416 5419 5421 5424 5426 5428 5429 5429 5431 5433 5435 5438 5441 5444 5446 5449 5451 5454 5456 5460 5462 5465 5468 5470 5472 5473 5475 5476 5477 5479 5480 5482 5485 5487 5489 5491 5493 5494 5495 5497 5499 5500 5501 5502 5503 5504 5505 5506 5507 5509 5510 5512 5514 5515 5517 5518 5520 5521 5523
5340 5344 5347 5349 5352 5355 5358 5361 5364 5367 5370 5373 5375 5379 5382 5386 5389 5391 5394 5396 5398 5400 5403 5405 5407 5409 5411 5414 5417 5420 5423 5426 5427 5427 5427 5429 5431 5433 5435 5438 5441 5443 5446 5448 5450 5453 5456 5459 5462 5464 5466 5469 5470 5472 5473 5475 5476 5478 5479 5481 5483 5485 5487 5489 5490 5492 5493 5495 5495 5496 5497 5497 5498 5499 5501 5503 5505 5506 5508 5510 5512 5513 5514 5515 5517 5518
5343 5346 5349 5351 5354 5356 5359 5361 5364 5366 5369 5372 5375 5379 5382 5386 5389 5391 5393 5395 5398 5400 5403 5405 5406 5408 5410 5412 5415 5418 5421 5424 5425 5425 5425 5427 5429 5431 5433 5436 5438 5440 5443 5445 5448 5450 5453 5456 5458 5461 5463 5465 5467 5469 5470 5472 5474 5475 5476 5478 5480 5481 5483 5485 5487 5488 5490 5490 5491 5491 5492 5493 5494 5495 5497 5499 5501 5503 5504 5506 5508 5509 5510 5512 5513 5515
5345 5348 5350 5352 5355 5358 5361 5363 5365 5368 5370 5372 5375 5378 5382 5385 5389 5391 5393 5395 5397 5400 5402 5404 5405 5407 5409 5411 5413 5416 5418 5420 5422 5423 5424 5425 5427 5430 5432 5434 5436 5438 5440 5442 5445 5447 5450 5452 5455 5457 5460 5462 5464 5466 5467 5469 5470 5472 5474 5475 5477 5479 5480 5482 5484 5485 5486 5487 5487 5488 5488 5489 5490 5492 5494 5496 5497 5499 5500 5502 5504 5505 5507 5508 5509 5511
5346 5348 5350 5352 5355 5357 5360 5364 5366 5369 5370 5373 5375 5378 5381 5385 5388 5391 5393 5395 5397 5399 5401 5403 5404 5406 5408 5410 5412 5414 5416 5418 5420 5421 5423 5425 5427 5429 5431 5433 5435 5436 5438 5440 5442 5445 5447 5449 5451 5454 5456 5458 5460 5462 5464 5466 5468 5469 5471 5473 5475 5476 5477 5479 5480 5481 5482 5483 5484 5484 5485 5486 5487 5489 5491 5492 5494 5495 5497 5499 5500 5502 5503 5504 5505 5507
5346 5348 5350 5352 5354 5357 5360 5363 5366 5368 5370 5372 5375 5378 5382 5385 5388 5390 5392 5394 5395 5397 5399 5401 5403 5405 5407 5409 5411 5414 5415 5417 5418 5420 5422 5424 5426 5428 5430 5432 5434 5435 5437 5439 5440 5442 5445 5447 5449 5451 5453 5455 5457 5459 5461 5463 5465 5467 5468 5470 5472 5473 5475 5476 5477 5478 5479 5480 5480 5481 5481 5483 5485 5486 5487 5489 5490 5492 5494 5495 5496 5498 5499 5500 5502 5503
5346 5349 5351 5353 5355 5358 5360 5363 5366 5368 5370 5372 5375 5378 5381 5384 5386 5389 5391 5393 5395 5396 5398 5400 5402 5404 5405 5408 5410 5412 5414 5416 5417 5419 5420 5423 5425 5427 5429 5431 5433 5435 5436 5437 5439 5441 5443 5445 5446 5449 5451 5453 5455 5456 5458 5460 5463 5464 5466 5468 5469 5470 5471 5473 5474 5474 5475 5476 5476 5477 5478 5480 5481 5482 5484 5485 5487 5489 5490 5492 5493 5495 5496 5497 5499 5500
5348 5350 5353 5355 5358 5360 5362 5365 5367 5370 5372 5374 5376 5378 5381 5384 5386 5388 5390 5392 5394 5396 5398 5400 5401 5403 5405 5406 5408 5410 5412 5415 5416 5418 5420 5421 5424 5425 5428 5430 5431 5433 5435 5436 5438 5440 5441 5443 5445 5446 5448 5451 5453 5454 5456 5458 5460 5462 5463 5465 5466 5467 5468 5469 5470 5471 5472 5472 5473 5474 5475 5477 5478 5480 5481 5483 5485 5486 5487 5489 5490 5491 5493 5494 5495 5496
5350 5352 5355 5358 5360 5362 5364 5367 5369 5372 5374 5376 5377 5379 5382 5384 5386 5388 5390 5392 5394 5395 5397 5400 5401 5403 5404 5405 5407 5409 5411 5413 5415 5417 5418 5420 5422 5424 5426 5428 5430 5431 5433 5435 5436 5438 5440 5442 5443 5445 5446 5448 5450 5452 5454 5456 5457 5459 5460 5462 5463 5464 5465 5466 5467 5467 5468 5469 5470 5471 5472 5474 5475 5477 5479 5480 5481 5482 5484 5486 5487 5488 5489 5490 5492 5493
5351 5354 5356 5359 5361 5364 5366 5368 5370 5373 5375 5377 5378 5380 5382 5384 5386 5388 5390 5391 5393 5395 5396 5399 5400 5402 5404 5406 5407 5409 5410 5412 5414 5415 5417 5419 5421 5422 5424 5426 5428 5429 5431 5433 5434 5436 5438 5440 5442 5444 5445 5446 5448 5450 5452 5453 5455 5456 5458 5459 5460 5461 5462 5463 5463 5464 5465 5466 5467 5468 5470 5471 5472 5474 5475 5477 5478 5479 5481 5483 5484 5485 5486 5487 5489 5490